Previsão horária em Abaetetuba

Hoje, 23 Outubro, Sexta-feira

Tempo Temperatura Precipitação Vento Pressão Humidade
00:00 +27°C° 0 mm 3 m/s 757 mmHg 79%
01:00 +27°C° 0 mm 3 m/s 757 mmHg 82%
02:00 +26°C° 0 mm 3 m/s 756 mmHg 86%
03:00 +26°C° 0 mm 2 m/s 756 mmHg 89%
04:00 +26°C° 0 mm 2 m/s 756 mmHg 90%
05:00 +26°C° 0 mm 2 m/s 756 mmHg 91%
06:00 +25°C° 0 mm 2 m/s 756 mmHg 92%
07:00 +27°C° 0 mm 2 m/s 757 mmHg 84%
08:00 +29°C° 0 mm 3 m/s 758 mmHg 75%
09:00 +31°C° 0 mm 3 m/s 758 mmHg 67%
10:00 +34°C° 0 mm 3 m/s 758 mmHg 60%
11:00 +36°C° 0 mm 3 m/s 757 mmHg 53%
12:00 +37°C° 0 mm 3 m/s 757 mmHg 46%
13:00 +37°C° 0.1 mm 3 m/s 756 mmHg 49%
14:00 +36°C° 0.1 mm 3 m/s 755 mmHg 52%
15:00 +35°C° 0.1 mm 3 m/s 754 mmHg 55%
16:00 +34°C° 0 mm 3 m/s 755 mmHg 59%
17:00 +33°C° 0 mm 4 m/s 755 mmHg 63%
18:00 +30°C° 0 mm 4 m/s 755 mmHg 67%
19:00 +30°C° 0 mm 4 m/s 756 mmHg 68%
20:00 +29°C° 0 mm 4 m/s 756 mmHg 68%
21:00 +29°C° 0 mm 4 m/s 757 mmHg 69%
22:00 +28°C° 0 mm 4 m/s 757 mmHg 71%
23:00 +28°C° 0 mm 4 m/s 757 mmHg 74%

Amanhã, 24 Outubro, Sábado

Tempo Temperatura Precipitação Vento Pressão Humidade
00:00 +27°C° 0 mm 3 m/s 757 mmHg 76%
01:00 +26°C° 0 mm 3 m/s 756 mmHg 80%
02:00 +26°C° 0 mm 3 m/s 756 mmHg 85%
03:00 +25°C° 0 mm 3 m/s 756 mmHg 89%
04:00 +25°C° 0 mm 3 m/s 756 mmHg 91%
05:00 +25°C° 0 mm 2 m/s 756 mmHg 93%
06:00 +25°C° 0 mm 2 m/s 757 mmHg 94%
07:00 +27°C° 0 mm 3 m/s 757 mmHg 84%
08:00 +29°C° 0 mm 3 m/s 758 mmHg 74%
09:00 +31°C° 0 mm 3 m/s 759 mmHg 64%
10:00 +34°C° 0 mm 3 m/s 758 mmHg 57%
11:00 +35°C° 0 mm 3 m/s 758 mmHg 50%
12:00 +37°C° 0 mm 3 m/s 757 mmHg 43%
13:00 +37°C° 0 mm 3 m/s 756 mmHg 44%
14:00 +37°C° 0 mm 3 m/s 755 mmHg 44%
15:00 +37°C° 0 mm 4 m/s 754 mmHg 44%
16:00 +35°C° 0 mm 4 m/s 754 mmHg 51%
17:00 +34°C° 0 mm 4 m/s 754 mmHg 57%
18:00 +32°C° 0 mm 4 m/s 754 mmHg 64%
19:00 +30°C° 0 mm 4 m/s 754 mmHg 68%
20:00 +29°C° 0 mm 4 m/s 755 mmHg 72%
21:00 +29°C° 0 mm 4 m/s 755 mmHg 76%
22:00 +28°C° 0 mm 4 m/s 755 mmHg 80%
23:00 +27°C° 0 mm 3 m/s 755 mmHg 83%

Depois de amanhã, 25 Outubro, Domingo

Tempo Temperatura Precipitação Vento Pressão Humidade
00:00 +26°C° 0 mm 3 m/s 755 mmHg 86%
01:00 +26°C° 0 mm 3 m/s 755 mmHg 88%
02:00 +26°C° 0 mm 2 m/s 755 mmHg 91%
03:00 +25°C° 0 mm 2 m/s 755 mmHg 93%
04:00 +25°C° 0 mm 2 m/s 755 mmHg 94%
05:00 +25°C° 0 mm 2 m/s 755 mmHg 95%
06:00 +25°C° 0 mm 2 m/s 756 mmHg 96%
07:00 +27°C° 0 mm 2 m/s 756 mmHg 85%
08:00 +29°C° 0 mm 2 m/s 757 mmHg 75%
09:00 +33°C° 0 mm 3 m/s 758 mmHg 65%
10:00 +34°C° 0 mm 3 m/s 757 mmHg 57%
11:00 +36°C° 0 mm 3 m/s 756 mmHg 48%
12:00 +38°C° 0 mm 3 m/s 756 mmHg 40%
13:00 +38°C° 0 mm 3 m/s 755 mmHg 40%
14:00 +38°C° 0 mm 3 m/s 754 mmHg 40%
15:00 +38°C° 0 mm 3 m/s 753 mmHg 40%
16:00 +36°C° 0 mm 4 m/s 753 mmHg 48%
17:00 +34°C° 0 mm 4 m/s 754 mmHg 57%
18:00 +32°C° 0 mm 4 m/s 754 mmHg 65%
19:00 +30°C° 0 mm 4 m/s 754 mmHg 67%
20:00 +30°C° 0 mm 4 m/s 755 mmHg 70%
21:00 +29°C° 0 mm 5 m/s 755 mmHg 72%
22:00 +29°C° 0 mm 4 m/s 755 mmHg 74%
23:00 +28°C° 0 mm 4 m/s 755 mmHg 75%

26 Outubro, Segunda-feira

Tempo Temperatura Precipitação Vento Pressão Humidade
00:00 +28°C° 0 mm 3 m/s 755 mmHg 76%
01:00 +27°C° 0 mm 3 m/s 755 mmHg 80%
02:00 +27°C° 0 mm 3 m/s 755 mmHg 83%
03:00 +26°C° 0 mm 2 m/s 755 mmHg 86%
04:00 +26°C° 0 mm 2 m/s 755 mmHg 89%
05:00 +25°C° 0 mm 2 m/s 755 mmHg 91%
06:00 +25°C° 0 mm 2 m/s 755 mmHg 93%
07:00 +27°C° 0 mm 3 m/s 756 mmHg 83%
08:00 +30°C° 0 mm 3 m/s 756 mmHg 73%
09:00 +33°C° 0 mm 3 m/s 757 mmHg 64%
10:00 +34°C° 0 mm 3 m/s 756 mmHg 56%
11:00 +36°C° 0 mm 3 m/s 756 mmHg 48%
12:00 +38°C° 0 mm 3 m/s 755 mmHg 40%
13:00 +38°C° 0 mm 3 m/s 755 mmHg 42%
14:00 +37°C° 0 mm 3 m/s 754 mmHg 43%
15:00 +37°C° 0 mm 4 m/s 753 mmHg 45%
16:00 +35°C° 0 mm 4 m/s 753 mmHg 52%
17:00 +34°C° 0 mm 4 m/s 753 mmHg 58%
18:00 +32°C° 0 mm 4 m/s 754 mmHg 65%
19:00 +32°C° 0.1 mm 4 m/s 754 mmHg 67%
20:00 +30°C° 0.1 mm 4 m/s 755 mmHg 69%
21:00 +30°C° 0.1 mm 4 m/s 756 mmHg 71%
22:00 +29°C° 0 mm 4 m/s 756 mmHg 73%
23:00 +29°C° 0 mm 4 m/s 756 mmHg 75%

27 Outubro, Terça-feira

Tempo Temperatura Precipitação Vento Pressão Humidade
00:00 +28°C° 0 mm 3 m/s 755 mmHg 77%
01:00 +28°C° 0 mm 3 m/s 755 mmHg 80%
02:00 +27°C° 0 mm 3 m/s 755 mmHg 84%
03:00 +27°C° 0 mm 3 m/s 754 mmHg 88%
04:00 +27°C° 0 mm 3 m/s 755 mmHg 90%
05:00 +26°C° 0 mm 2 m/s 755 mmHg 92%
06:00 +26°C° 0 mm 2 m/s 755 mmHg 94%
07:00 +28°C° 0 mm 3 m/s 756 mmHg 83%
08:00 +30°C° 0 mm 3 m/s 756 mmHg 73%
09:00 +33°C° 0 mm 3 m/s 757 mmHg 63%
10:00 +35°C° 0 mm 4 m/s 756 mmHg 55%
11:00 +37°C° 0 mm 4 m/s 756 mmHg 48%
12:00 +40°C° 0 mm 4 m/s 755 mmHg 40%
13:00 +38°C° 0 mm 4 m/s 754 mmHg 41%
14:00 +38°C° 0 mm 4 m/s 753 mmHg 43%
15:00 +38°C° 0 mm 4 m/s 752 mmHg 44%
16:00 +36°C° 0 mm 4 m/s 752 mmHg 52%
17:00 +34°C° 0 mm 5 m/s 752 mmHg 60%
18:00 +32°C° 0 mm 5 m/s 752 mmHg 67%
19:00 +32°C° 0 mm 5 m/s 753 mmHg 68%
20:00 +30°C° 0 mm 5 m/s 754 mmHg 70%
21:00 +30°C° 0 mm 5 m/s 754 mmHg 71%
22:00 +29°C° 0 mm 5 m/s 754 mmHg 73%
23:00 +29°C° 0 mm 4 m/s 754 mmHg 76%

28 Outubro, Quarta-feira

Tempo Temperatura Precipitação Vento Pressão Humidade
00:00 +28°C° 0 mm 4 m/s 755 mmHg 79%
01:00 +28°C° 0 mm 3 m/s 754 mmHg 80%
02:00 +27°C° 0 mm 3 m/s 754 mmHg 82%
03:00 +27°C° 0 mm 3 m/s 753 mmHg 84%
04:00 +27°C° 0 mm 3 m/s 754 mmHg 85%
05:00 +26°C° 0 mm 3 m/s 754 mmHg 86%
06:00 +26°C° 0 mm 2 m/s 754 mmHg 88%
07:00 +28°C° 0 mm 3 m/s 755 mmHg 79%
08:00 +30°C° 0 mm 3 m/s 756 mmHg 71%
09:00 +33°C° 0 mm 3 m/s 756 mmHg 63%
10:00 +35°C° 0 mm 3 m/s 756 mmHg 56%
11:00 +36°C° 0 mm 3 m/s 755 mmHg 50%
12:00 +38°C° 0 mm 3 m/s 755 mmHg 43%
13:00 +37°C° 0.1 mm 3 m/s 754 mmHg 46%
14:00 +37°C° 0.1 mm 4 m/s 753 mmHg 49%
15:00 +36°C° 0.1 mm 4 m/s 753 mmHg 52%
16:00 +35°C° 0 mm 4 m/s 753 mmHg 57%
17:00 +33°C° 0 mm 4 m/s 753 mmHg 61%
18:00 +32°C° 0 mm 5 m/s 753 mmHg 66%
19:00 +30°C° 0.1 mm 4 m/s 754 mmHg 69%
20:00 +30°C° 0.1 mm 4 m/s 754 mmHg 73%
21:00 +29°C° 0.1 mm 4 m/s 755 mmHg 77%
22:00 +29°C° 0 mm 4 m/s 755 mmHg 77%
23:00 +28°C° 0 mm 4 m/s 755 mmHg 78%
Mostrar mais